Location: Byszew
(52.1813°N, 19.2693°E)
Time: 23:43:52
(UTC+00:00)

Cosmos 2322 Rocket - Pass Details

Date: 24 June 2021
Orbit: 833 x 850 km, 71.0° (Epoch: 26 July)

Event Time Altitude Azimuth Distance (km) Brightness Sun altitude
Rises 23:20:04 0° 315° (NW) 3,426 5.9 -14.1°
Reaches altitude 10° 23:24:32 10° 347° (NNW) 2,487 5.8 -14.0°
Maximum altitude 23:26:28 12° 7° (N) 2,369 5.9 -13.9°
Drops below altitude 10° 23:28:24 10° 27° (NNE) 2,483 5.9 -13.9°
Sets 23:32:50 0° 60° (ENE) 3,413 6.0 -13.7°
